This demonstration page uses our WeatherBlox Daily Observations layout. Learn more.

36.19886, -115.1175

Hourly Observations for July 1, 2019

Temp ( °F °C ) Dew Point ( °F °C ) Humidity (%) Winds ( mph kmh ) Pressure ( in mb ) Visibility ( mi km ) Precip ( " mm )
12:53 am 00:53 Clear 85 29.4 24 -4.4 11 11 Calm 29.83 1010 10 16.09344 0 0
1:53 am 01:53 Clear 81 27.2 27 -2.8 14 14 Calm 29.83 1010 10 16.09344 0 0
2:53 am 02:53 Clear 79 26.1 30 -1.1 17 17 NNW 6 9 29.83 1010 10 16.09344 0 0
3:53 am 03:53 Clear 77 25 30 -1.1 18 18 WNW 5 7 29.83 1010 10 16.09344 0 0
4:53 am 04:53 Clear 75 23.9 31 -0.6 20 20 N 5 7 29.85 1011 10 16.09344 0 0
5:53 am 05:53 Sunny 73 22.8 28 -2.2 19 19 N 6 9 29.85 1011 10 16.09344 0 0
6:53 am 06:53 Sunny 78 25.6 28 -2.2 16 16 WNW 3 6 29.88 1012 10 16.09344 0 0
7:53 am 07:53 Sunny 82 27.8 29 -1.7 14 14 Calm 29.88 1012 10 16.09344 0 0
8:53 am 08:53 Sunny 85 29.4 31 -0.6 14 14 Calm 29.88 1012 10 16.09344 0 0
9:53 am 09:53 Sunny 90 32.2 29 -1.7 11 11 Calm 29.88 1012 10 16.09344 0 0
10:53 am 10:53 Sunny 93 33.9 29 -1.7 10 10 SE 5 7 29.85 1011 10 16.09344 0 0
11:53 am 11:53 Sunny 98 36.7 27 -2.8 8 8 SSW 13 20 29.83 1010 10 16.09344 0 0
12:53 pm 12:53 Sunny 100 37.8 26 -3.3 7 7 SW 10 17 29.83 1010 10 16.09344 0 0
1:53 pm 13:53 Sunny 102 38.9 25 -3.9 6 6 S 20 31 29.8 1009 10 16.09344 0 0
2:53 pm 14:53 Sunny 103 39.4 25 -3.9 6 6 SW 20 31 29.77 1008 10 16.09344 0 0
3:53 pm 15:53 Sunny 103 39.4 26 -3.3 6 6 WSW 17 28 29.74 1007 10 16.09344 0 0
4:53 pm 16:53 Sunny 103 39.4 27 -2.8 7 7 SSW 17 28 29.74 1007 10 16.09344 0 0
5:53 pm 17:53 Sunny 101 38.3 29 -1.7 8 8 WSW 16 26 29.71 1006 10 16.09344 0 0
6:53 pm 18:53 Sunny 100 37.8 30 -1.1 8 8 WSW 16 26 29.71 1006 10 16.09344 0 0
7:53 pm 19:53 Sunny 98 36.7 29 -1.7 9 9 SW 10 17 29.71 1006 10 16.09344 0 0
8:53 pm 20:53 Clear 95 35 27 -2.8 9 9 SW 9 15 29.71 1006 10 16.09344 0 0
9:53 pm 21:53 Clear 94 34.4 23 -5 8 8 SW 10 17 29.74 1007 10 16.09344 0 0
10:53 pm 22:53 Clear 93 33.9 20 -6.7 7 7 SW 12 19 29.74 1007 10 16.09344 0 0
11:53 pm 23:53 Clear 91 32.8 24 -4.4 9 9 SW 10 17 29.74 1007 10 16.09344 0 0

Powered by AerisWeather